Simultaneous Nadir Overpasses (SNOs) Predictions

Prediction of SNOs between AQUA and GOES-15 Satellite Orbit:

Table of predicted SNOs for the next 14.0 days since TLE Epoch: 3/22/2013
Index Date Time (AQUA) AQUA Lat,Lon GOES-15 Lat,Lon Distance(km) Time Diff (sec)
1 03/24/2013 10:32:30 -0.24,-134.18 0.02,-135.26 123.18 80
2 03/24/2013 22:53:54 -0.89,-139.37 -0.02,-135.22 471.34 80
3 03/26/2013 10:20:19 -0.86,-131.22 0.01,-135.22 454.67 80
4 03/26/2013 22:41:43 -0.27,-136.41 -0.02,-135.18 140.00 80
5 03/28/2013 22:29:32 0.36,-133.45 -0.01,-135.12 190.62 80
6 03/29/2013 10:50:46 0.77,-138.60 0.01,-135.14 394.14 80
7 03/31/2013 10:38:36 0.12,-135.64 0.01,-135.07 64.53 80
8 04/02/2013 10:26:24 -0.48,-132.67 0.01,-135.00 264.48 80
9 04/02/2013 22:47:47 -0.64,-137.86 -0.01,-134.95 330.58 80
10 04/04/2013 22:35:35 -0.02,-134.89 -0.01,-134.88 1.92 80




NCC Satellite Simultaneous Nadir Overpasses (SNOs) Prediction Service
